ONEWEB-0025 (45138 NORAD) Tracking and Keplerian Element Data

This shows tracking and keplerian element data for the satellite.

Feedback or suggestion? Click here.




ElementValue
Catalog45138
NameONEWEB-0025
Epoch Orbit175
Epoch Day189.91668981
Epoch Year2020
RAAN115.3947
Inclination87.5845
Eccentricity0.0023976
Argument of Perigee107.9659
Mean Anonmoly192.3944
Mean Motion14.98388485
Decay Rate-0.00058923
L11 45138U 20008H 20189.91668981 -.00058923 00000-0 -49628-2 0 9999
L22 45138 87.5845 115.3947 0023976 107.9659 192.3944 14.98388485 1757

Live tracking and technical data element details for ONEWEB-0025 (NORAD 45138). ONEWEB-0025 can be tracked NOW for your location showing map with azimuth and elevation plus other details from your city location.

Track the satellite on the map from your city or location and see movement details for azimuth, elevation, latitude, longitude, range, height, and movement on the map or in text.







IsCatalogInMostPopularTable: catalog: 45138, numindb: 30
Update: records affected: 1



GetName: 45138 ONEWEB-0025

Hit Count: updated at: Thu, 09 Jul 2020 02:04:32 GMT